Location: Hackberry
(29.5783°N, 96.8797°W)
Time: 04:16:46
(UTC+00:00)

Courier 1B - Visible Passes

Search period start: 12 November 2024 00:00
Search period end: 22 November 2024 00:00
Orbit: 962 x 1208 km, 28.3° (Epoch: 11 November)

Date Brightness Start Highest point End Pass type
(mag) Time Alt. Az. Time Alt. Az. Time Alt. Az.
12 Nov 7.7 00:29:32 10° W 00:36:01 71° S 00:41:38 16° ESE visible
12 Nov 8.8 02:23:46 10° W 02:28:32 35° SW 02:28:32 35° SW visible
13 Nov 8.2 01:29:50 10° W 01:36:04 46° SSW 01:38:20 34° SSE visible
14 Nov 8.1 00:35:59 10° W 00:42:18 55° SSW 00:48:14 13° ESE visible
14 Nov 9.3 02:30:47 10° WSW 02:35:09 23° SW 02:35:09 23° SW visible
15 Nov 8.9 01:36:36 10° W 01:42:12 30° SSW 01:45:09 22° SSE visible
16 Nov 8.7 00:42:33 10° W 00:48:29 38° SSW 00:54:35 10° SE visible
16 Nov 9.9 02:39:03 10° WSW 02:41:59 13° SSW 02:42:13 13° SSW visible
16 Nov 8.5 23:48:36 10° W 23:54:45 47° SSW 00:01:00 10° SE visible
17 Nov 9.7 01:44:01 10° WSW 01:48:16 18° SSW 01:52:28 10° SSE visible
18 Nov 9.4 00:49:32 10° WSW 00:54:34 24° SSW 00:59:43 10° SSE visible
18 Nov 9.2 23:55:18 10° W 00:00:53 31° SSW 00:06:32 10° SE visible
20 Nov 10.0 00:57:40 10° WSW 01:00:37 13° SSW 01:03:36 10° S visible
21 Nov 9.9 00:02:37 10° WSW 00:06:57 19° SSW 00:11:18 10° SSE visible
